EW5123 Weather Reports


time (UTC)temp
C
wind
direction
speed
KPH
gust
KPH
rain 1hr
cm
rain 24hr
cm
rain mn
cm
humidity
%
barometer
mb
20260509211913 19 323 6.4 19.3 0.00 0.00 0.00 25 979.1
20260509211413 20 16 8.0 20.9 0.00 0.00 0.00 25 979.2
20260509210912 20 310 4.8 20.9 0.00 0.00 0.00 23 978.9
20260509210411 20 293 4.8 12.9 0.00 0.00 0.00 23 979.1
20260509205911 20 350 4.8 12.9 0.00 0.00 0.00 20 979.2
20260509205415 20 323 6.4 14.5 0.00 0.00 0.00 20 978.9
20260509205411 20 6 4.8 11.3 0.00 0.00 0.00 20 979.2
20260509204910 20 313 6.4 11.3 0.00 0.00 0.00 20 979.1
20260509203911 21 6 3.2 14.5 0.00 0.00 0.00 20 979.1
20260509203411 21 341 4.8 16.1 0.00 0.00 0.00 19 979.1
20260509202910 21 336 6.4 16.1 0.00 0.00 0.00 22 978.9
20260509202409 21 317 6.4 17.7 0.00 0.00 0.00 20 978.9
20260509201909 22 22 8.0 22.5 0.00 0.00 0.00 21 979.1
20260509201413 22 347 8.0 29.0 0.00 0.00 0.00 20 979.2
20260509201409 22 343 9.7 29.0 0.00 0.00 0.00 20 979.1
20260509200413 22 24 3.2 11.3 0.00 0.00 0.00 19 979.2
20260509200409 22 350 4.8 11.3 0.00 0.00 0.00 19 979.1
20260509195409 22 328 4.8 14.5 0.00 0.00 0.00 17 979.2
20260509194908 22 324 8.0 17.7 0.00 0.00 0.00 17 979.2
20260509194409 22 36 9.7 20.9 0.00 0.00 0.00 20 979.2
20260509193910 21 102 8.0 20.9 0.00 0.00 0.00 19 979.3
20260509193407 22 20 8.0 19.3 0.00 0.00 0.00 18 979.3
20260509192906 22 327 9.7 19.3 0.00 0.00 0.00 17 979.2
20260509192407 21 1 8.0 20.9 0.00 0.00 0.00 17 979.2
20260509191909 21 356 8.0 20.9 0.00 0.00 0.00 18 979.2
20260509191407 21 333 9.7 20.9 0.00 0.00 0.00 20 979.2
20260509190907 21 27 11.3 29.0 0.00 0.00 0.00 19 979.3
20260509190408 21 320 9.7 46.7 0.00 0.00 0.00 17 979.3
20260509185907 21 8 8.0 46.7 0.00 0.00 0.00 19 979.1
20260509185407 21 14 9.7 19.3 0.00 0.00 0.00 18 979.3
20260509184907 21 2 9.7 20.9 0.00 0.00 0.00 19 979.4
20260509184409 21 56 8.0 24.1 0.00 0.00 0.00 19 979.6
20260509184405 21 11 9.7 24.1 0.00 0.00 0.00 19 979.4
20260509183409 20 8 6.4 19.3 0.00 0.00 0.00 21 979.6
20260509183405 21 30 8.0 22.5 0.00 0.00 0.00 19 979.6
20260509182410 20 0 6.4 16.1 0.00 0.00 0.00 21 979.8
20260509182405 21 309 6.4 17.7 0.00 0.00 0.00 20 979.6
20260509181905 20 30 6.4 17.7 0.00 0.00 0.00 20 979.6
20260509180903 20 300 8.0 16.1 0.00 0.00 0.00 22 979.8
20260509180403 20 256 8.0 20.9 0.00 0.00 0.00 21 979.8
20260509175903 20 345 8.0 20.9 0.00 0.00 0.00 21 979.8
20260509175403 20 322 8.0 20.9 0.00 0.00 0.00 21 979.6
20260509174907 20 31 8.0 19.3 0.00 0.00 0.00 20 979.9
20260509174903 20 335 9.7 20.9 0.00 0.00 0.00 22 979.8
20260509174508 20 353 8.0 25.7 0.00 0.00 0.00 21 979.9
20260509174009 20 332 4.8 25.7 0.00 0.00 0.00 24 979.9
20260509172902 20 8 4.8 16.1 0.00 0.00 0.00 21 979.9
20260509172400 20 296 8.0 17.7 0.00 0.00 0.00 21 980.0
20260509171901 20 6 9.7 17.7 0.00 0.00 0.00 22 980.0
20260509171405 20 8 8.0 22.5 0.00 0.00 0.00 23 980.0
20260509171401 20 13 9.7 19.3 0.00 0.00 0.00 21 980.1
20260509170401 19 334 8.0 22.5 0.00 0.00 0.00 22 979.9
20260509165901 19 6 9.7 20.9 0.00 0.00 0.00 21 980.0
20260509165400 19 331 8.0 20.9 0.00 0.00 0.00 21 980.0
20260509164900 19 346 9.7 19.3 0.00 0.00 0.00 23 980.0
20260509164401 19 318 11.3 19.3 0.00 0.00 0.00 21 980.0
20260509163859 19 339 11.3 20.9 0.00 0.00 0.00 22 979.9
20260509163359 19 26 11.3 22.5 0.00 0.00 0.00 21 980.0
20260509162902 18 349 9.7 20.9 0.00 0.00 0.00 24 979.8
20260509162858 19 321 9.7 22.5 0.00 0.00 0.00 24 979.8
20260509161859 18 342 9.7 20.9 0.00 0.00 0.00 23 979.8
20260509161358 18 337 9.7 20.9 0.00 0.00 0.00 25 979.8
20260509160859 18 314 8.0 17.7 0.00 0.00 0.00 23 979.8
20260509160402 17 18 8.0 20.9 0.00 0.00 0.00 26 979.8
20260509160358 18 333 8.0 16.1 0.00 0.00 0.00 25 979.9
20260509155403 17 289 6.4 19.3 0.00 0.00 0.00 25 979.9
20260509155359 17 312 8.0 20.9 0.00 0.00 0.00 25 979.9
20260509154358 17 39 4.8 11.3 0.00 0.00 0.00 26 979.9
20260509153858 17 311 6.4 14.5 0.00 0.00 0.00 27 980.0
20260509153358 17 22 6.4 14.5 0.00 0.00 0.00 26 980.0
20260509152859 17 351 4.8 12.9 0.00 0.00 0.00 26 980.1
20260509152403 17 295 3.2 9.7 0.00 0.00 0.00 29 980.1
20260509151903 16 337 3.2 8.0 0.00 0.00 0.00 29 980.1
20260509151358 16 326 4.8 11.3 0.00 0.00 0.00 27 980.2
20260509150857 16 302 4.8 11.3 0.00 0.00 0.00 30 980.1
20260509150356 16 23 3.2 11.3 0.00 0.00 0.00 29 980.2
20260509145856 16 314 3.2 9.7 0.00 0.00 0.00 29 980.2
20260509145357 16 30 1.6 9.7 0.00 0.00 0.00 33 980.2
20260509144900 15 340 1.6 4.8 0.00 0.00 0.00 35 980.5
20260509144856 15 342 1.6 6.4 0.00 0.00 0.00 35 980.4
20260509144502 15 330 0.0 8.0 0.00 0.00 0.00 36 980.4
20260509143355 15 328 0.0 8.0 0.00 0.00 0.00 38 980.4
20260509142854 15 276 1.6 8.0 0.00 0.00 0.00 39 980.4
20260509142353 15 333 1.6 8.0 0.00 0.00 0.00 40 980.4
20260509141854 15 301 1.6 6.4 0.00 0.00 0.00 38 980.4
20260509141355 14 226 1.6 6.4 0.00 0.00 0.00 39 980.4
20260509140854 13 283 0.0 4.8 0.00 0.00 0.00 41 980.4
20260509135855 12 193 0.0 3.2 0.00 0.00 0.00 44 980.2
20260509135353 12 219 0.0 1.6 0.00 0.00 0.00 44 980.2
20260509134856 12 272 0.0 3.2 0.00 0.00 0.00 46 980.1
20260509134852 12 235 0.0 1.6 0.00 0.00 0.00 44 980.2
20260509133852 12 246 0.0 4.8 0.00 0.00 0.00 46 980.1
20260509133357 10 217 0.0 3.2 0.00 0.00 0.00 51 980.0
20260509133353 11 243 0.0 4.8 0.00 0.00 0.00 47 980.0
20260509132352 10 250 0.0 0.0 0.00 0.00 0.00 60 979.9
20260509131852 10 250 0.0 1.6 0.00 0.00 0.00 59 980.0
20260509131350 11 250 0.0 1.6 0.00 0.00 0.00 54 979.9
20260509130850 10 210 0.0 3.2 0.00 0.00 0.00 51 979.9
20260509130351 9 206 0.0 3.2 0.00 0.00 0.00 54 979.8
20260509125850 7 226 0.0 1.6 0.00 0.00 0.00 71 979.8
20260509125349 7 200 0.0 0.0 0.00 0.00 0.00 71 979.8
20260509124848 7 200 0.0 0.0 0.00 0.00 0.00 72 979.8
20260509124348 6 200 0.0 0.0 0.00 0.00 0.00 72 979.5
20260509123853 5 200 0.0 0.0 0.00 0.00 0.00 74 979.4
20260509123848 6 200 0.0 0.0 0.00 0.00 0.00 73 979.4
20260509122848 5 200 0.0 0.0 0.00 0.00 0.00 74 979.4
20260509122348 5 200 0.0 0.0 0.00 0.00 0.00 75 979.3
20260509121848 5 200 0.0 0.0 0.00 0.00 0.00 74 979.3
20260509121350 5 199 0.0 0.0 0.00 0.00 0.00 74 979.2
20260509120848 5 200 0.0 0.0 0.00 0.00 0.00 74 979.2
20260509120348 5 199 0.0 0.0 0.00 0.00 0.00 72 979.1
20260509115846 5 199 0.0 0.0 0.00 0.00 0.00 71 978.8
20260509115346 6 199 0.0 0.0 0.00 0.00 0.00 70 978.8
20260509114846 6 199 0.0 0.0 0.00 0.00 0.00 69 978.7
20260509114349 6 200 0.0 0.0 0.00 0.00 0.00 68 978.8
20260509114345 6 200 0.0 0.0 0.00 0.00 0.00 69 978.7
20260509113346 6 199 0.0 0.0 0.00 0.00 0.00 66 978.7
20260509112850 7 199 0.0 0.0 0.00 0.00 0.00 64 978.7
20260509112846 7 200 0.0 0.0 0.00 0.00 0.00 65 978.6
20260509111846 7 200 0.0 1.6 0.00 0.00 0.00 64 978.6
20260509111346 7 204 0.0 4.8 0.00 0.00 0.00 64 978.6
20260509110844 7 207 0.0 4.8 0.00 0.00 0.00 64 978.6
20260509110344 7 201 0.0 1.6 0.00 0.00 0.00 65 978.8
20260509105844 8 204 0.0 1.6 0.00 0.00 0.00 63 978.8
20260509105344 8 210 0.0 0.0 0.00 0.00 0.00 61 978.8
20260509104846 8 233 0.0 3.2 0.00 0.00 0.00 60 978.9
20260509104842 8 210 0.0 1.6 0.00 0.00 0.00 61 978.9
20260509103841 8 224 0.0 3.2 0.00 0.00 0.00 60 978.9
20260509103342 8 356 0.0 0.0 0.00 0.00 0.00 62 978.9
20260509102843 8 355 0.0 0.0 0.00 0.00 0.00 61 978.8
20260509102344 9 338 0.0 0.0 0.00 0.00 0.00 59 978.8
20260509101839 9 338 0.0 1.6 0.00 0.00 0.00 58 978.7
20260509101340 9 338 0.0 3.2 0.00 0.00 0.00 58 978.6
20260509100839 10 258 0.0 3.2 0.00 0.00 0.00 58 978.6
20260509100340 10 359 1.6 12.9 0.00 0.00 0.00 57 978.5
20260509095840 10 235 3.2 12.9 0.00 0.00 0.00 55 978.5
20260509095340 10 179 6.4 16.1 0.00 0.00 0.00 55 978.3
20260509094840 10 196 8.0 17.7 0.00 0.00 0.00 55 978.2
20260509094344 10 208 8.0 20.9 0.00 0.00 0.00 56 978.2
20260509094340 10 188 9.7 17.7 0.00 0.00 0.00 56 978.2
20260509093338 10 195 8.0 20.9 0.00 0.00 0.00 57 978.3
20260509092838 10 221 8.0 17.7 0.00 0.00 0.00 56 978.3
20260509092338 10 204 8.0 17.7 0.00 0.00 0.00 56 978.3
20260509091842 10 200 8.0 14.5 0.00 0.00 0.00 56 978.5
20260509091838 10 153 6.4 14.5 0.00 0.00 0.00 56 978.5
20260509090837 10 226 9.7 17.7 0.00 0.00 0.00 55 978.5
20260509090338 11 201 9.7 17.7 0.00 0.00 0.00 54 978.3
20260509085844 11 206 11.3 25.7 0.00 0.00 0.00 53 978.5
20260509085837 11 203 9.7 17.7 0.00 0.00 0.00 54 978.5
20260509085338 11 217 11.3 19.3 0.00 0.00 0.00 53 978.5
20260509084337 11 171 11.3 25.7 0.00 0.00 0.00 53 978.5
20260509083838 11 200 11.3 24.1 0.00 0.00 0.00 52 978.5
20260509083337 11 205 12.9 24.1 0.00 0.00 0.00 52 978.5
20260509082838 11 216 11.3 22.5 0.00 0.00 0.00 52 978.5
20260509082337 11 207 11.3 20.9 0.00 0.00 0.00 52 978.5
20260509081837 11 205 12.9 22.5 0.00 0.00 0.00 52 978.5
20260509081337 11 198 14.5 27.4 0.00 0.00 0.00 52 978.5
20260509080837 11 205 14.5 27.4 0.00 0.00 0.00 52 978.5
20260509080338 11 159 14.5 30.6 0.00 0.00 0.00 53 978.5
20260509075837 11 192 16.1 30.6 0.00 0.00 0.00 53 978.5
20260509075341 11 201 16.1 29.0 0.00 0.00 0.00 54 978.5
20260509075337 11 176 16.1 27.4 0.00 0.00 0.00 53 978.5
20260509074337 11 224 16.1 29.0 0.00 0.00 0.00 54 978.5
20260509073837 11 200 16.1 29.0 0.00 0.00 0.00 54 978.5
20260509073337 11 186 14.5 27.4 0.00 0.00 0.00 55 978.5
20260509072838 11 151 14.5 25.7 0.00 0.00 0.00 55 978.5
20260509072337 11 180 12.9 24.1 0.00 0.00 0.00 56 978.7
20260509071837 11 155 12.9 24.1 0.00 0.00 0.00 56 978.7
20260509071336 11 198 12.9 24.1 0.00 0.00 0.00 57 978.8
20260509070836 11 178 11.3 22.5 0.00 0.00 0.00 57 978.9
20260509070336 10 196 9.7 22.5 0.00 0.00 0.00 59 979.1
20260509065833 10 200 6.4 19.3 0.00 0.00 0.00 60 979.3
20260509065333 10 155 3.2 14.5 0.00 0.00 0.00 61 979.3
20260509064833 10 166 0.0 6.4 0.00 0.00 0.00 62 979.5
20260509064333 10 122 0.0 3.2 0.00 0.00 0.00 62 979.5
20260509063834 10 139 0.0 3.2 0.00 0.00 0.00 62 979.5
20260509063333 10 156 0.0 1.6 0.00 0.00 0.00 61 979.6
20260509062839 10 132 0.0 3.2 0.00 0.00 0.00 59 979.9
20260509062834 10 151 0.0 1.6 0.00 0.00 0.00 60 979.8
20260509062333 10 169 0.0 1.6 0.00 0.00 0.00 59 979.9
20260509061338 10 138 0.0 6.4 0.00 0.00 0.00 59 980.0
20260509061333 10 194 0.0 3.2 0.00 0.00 0.00 59 980.0
20260509060335 11 140 1.6 6.4 0.00 0.00 0.00 59 980.2
20260509060331 11 139 0.0 6.4 0.00 0.00 0.00 59 980.1
20260509055327 11 129 1.6 6.4 0.00 0.00 0.00 59 980.2
20260509054828 11 164 3.2 6.4 0.00 0.00 0.00 59 980.4
20260509054329 11 146 3.2 8.0 0.00 0.00 0.00 59 980.6
20260509053826 11 179 3.2 9.7 0.00 0.00 0.00 58 980.5
20260509053330 11 159 4.8 9.7 0.00 0.00 0.00 57 980.6
20260509053326 11 151 4.8 9.7 0.00 0.00 0.00 57 980.5
20260509052931 11 195 4.8 12.9 0.00 0.00 0.00 58 980.7
20260509051826 11 165 6.4 12.9 0.00 0.00 0.00 58 980.6
20260509051331 11 172 6.4 11.3 0.00 0.00 0.00 60 980.6
20260509051326 11 186 6.4 12.9 0.00 0.00 0.00 59 980.6
20260509050324 10 193 4.8 11.3 0.00 0.00 0.00 60 980.6
20260509045828 10 158 3.2 11.3 0.00 0.00 0.00 62 980.6
20260509045823 10 163 3.2 8.0 0.00 0.00 0.00 62 980.6
20260509044828 10 147 1.6 6.4 0.00 0.00 0.00 62 980.8
20260509044824 10 179 3.2 11.3 0.00 0.00 0.00 62 980.7
20260509043824 10 140 1.6 4.8 0.00 0.00 0.00 63 980.9
20260509043324 10 146 1.6 4.8 0.00 0.00 0.00 64 980.8
20260509042824 10 193 1.6 4.8 0.00 0.00 0.00 66 980.9
20260509042324 9 124 0.0 3.2 0.00 0.00 0.00 68 980.8
20260509041823 9 178 0.0 1.6 0.00 0.00 0.00 69 980.9
20260509041322 9 198 0.0 0.0 0.00 0.00 0.00 70 981.1
20260509040822 9 197 0.0 0.0 0.00 0.00 0.00 69 981.2
20260509040321 9 197 0.0 0.0 0.00 0.00 0.00 67 981.1
20260509035822 9 197 0.0 0.0 0.00 0.00 0.00 66 981.1
20260509035327 9 197 0.0 0.0 0.00 0.00 0.00 66 980.8
20260509035322 9 197 0.0 0.0 0.00 0.00 0.00 67 980.9
20260509034322 9 197 0.0 0.0 0.00 0.00 0.00 66 980.8
20260509033822 9 197 0.0 0.0 0.00 0.00 0.00 67 980.7
20260509033322 10 197 0.0 0.0 0.00 0.00 0.00 66 980.7
20260509032821 10 197 0.0 0.0 0.00 0.00 0.00 65 980.7
20260509032320 10 197 0.0 0.0 0.00 0.00 0.00 64 980.7
20260509031820 10 197 0.0 0.0 0.00 0.00 0.00 64 980.7
20260509031320 10 197 0.0 0.0 0.00 0.00 0.00 64 980.6
20260509030820 11 197 0.0 0.0 0.00 0.00 0.00 64 980.5
20260509030320 11 151 0.0 4.8 0.00 0.00 0.00 64 980.4
20260509025819 11 179 1.6 4.8 0.00 0.00 0.00 62 980.4
20260509025320 11 159 0.0 4.8 0.00 0.00 0.00 63 980.2
20260509024821 11 163 0.0 3.2 0.00 0.00 0.00 63 980.2
20260509024319 11 160 0.0 3.2 0.00 0.00 0.00 62 980.1
20260509023820 11 197 0.0 3.2 0.00 0.00 0.00 61 980.1
20260509023317 11 141 0.0 1.6 0.00 0.00 0.00 60 980.1
20260509022817 12 143 0.0 1.6 0.00 0.00 0.00 60 980.1
20260509022317 12 170 0.0 0.0 0.00 0.00 0.00 58 980.1
20260509021817 12 151 0.0 0.0 0.00 0.00 0.00 56 980.1
20260509021316 13 151 0.0 0.0 0.00 0.00 0.00 55 980.0
20260509020816 13 118 0.0 1.6 0.00 0.00 0.00 53 979.9
20260509020316 13 125 0.0 1.6 0.00 0.00 0.00 53 979.9
20260509015816 14 129 0.0 1.6 0.00 0.00 0.00 51 979.9
20260509015314 14 128 0.0 1.6 0.00 0.00 0.00 50 979.9
20260509014817 14 122 0.0 1.6 0.00 0.00 0.00 49 979.8
20260509014813 15 155 0.0 0.0 0.00 0.00 0.00 49 979.6
20260509013812 15 155 0.0 0.0 0.00 0.00 0.00 48 979.5
20260509013312 15 142 0.0 0.0 0.00 0.00 0.00 47 979.4
20260509012812 15 141 0.0 1.6 0.00 0.00 0.00 46 979.4
20260509012312 16 142 0.0 3.2 0.00 0.00 0.00 44 979.3
20260509011810 16 34 0.0 3.2 0.00 0.00 0.00 44 979.3
20260509011314 16 269 0.0 1.6 0.00 0.00 0.00 43 979.4
20260509011310 16 234 0.0 1.6 0.00 0.00 0.00 44 979.4
20260509010915 16 137 0.0 1.6 0.00 0.00 0.00 44 979.3
20260509005808 17 296 0.0 1.6 0.00 0.00 0.00 42 979.5
20260509005308 17 221 0.0 3.2 0.00 0.00 0.00 42 979.6
20260509004808 17 314 0.0 4.8 0.00 0.00 0.00 41 979.6
20260509004314 18 249 0.0 4.8 0.00 0.00 0.00 41 979.5
20260509003813 17 230 0.0 1.6 0.00 0.00 0.00 41 979.5
20260509003809 17 148 0.0 1.6 0.00 0.00 0.00 41 979.5
20260509002807 17 188 0.0 1.6 0.00 0.00 0.00 42 979.4
20260509002308 17 280 0.0 1.6 0.00 0.00 0.00 41 979.4
20260509001808 17 340 0.0 1.6 0.00 0.00 0.00 41 979.3
20260509001308 18 192 0.0 1.6 0.00 0.00 0.00 40 979.4
20260509000808 18 217 0.0 6.4 0.00 0.00 0.00 39 979.3
20260509000307 18 281 1.6 8.0 0.00 0.00 0.00 38 979.4
20260508235808 18 0 1.6 8.0 0.00 0.00 0.00 37 979.4
20260508235308 19 327 0.0 4.8 0.00 0.00 0.00 36 979.3
20260508234807 19 319 0.0 4.8 0.00 0.00 0.00 37 979.3
20260508234308 20 241 1.6 8.0 0.00 0.00 0.00 37 979.3
20260508233807 19 104 1.6 8.0 0.00 0.00 0.00 36 979.2
20260508233308 20 359 1.6 8.0 0.00 0.00 0.00 37 979.2
20260508232807 19 320 1.6 9.7 0.00 0.00 0.00 37 979.2
20260508232307 20 347 0.0 9.7 0.00 0.00 0.00 36 979.3
20260508231808 20 32 1.6 9.7 0.00 0.00 0.00 37 979.2
20260508231312 19 327 3.2 12.9 0.00 0.00 0.00 36 979.3
20260508231307 19 313 3.2 12.9 0.00 0.00 0.00 39 979.3
20260508230307 20 206 0.0 8.0 0.00 0.00 0.00 37 979.3
20260508225807 20 176 0.0 4.8 0.00 0.00 0.00 36 979.4
20260508225307 20 140 0.0 3.2 0.00 0.00 0.00 37 979.3
20260508224807 20 228 0.0 4.8 0.00 0.00 0.00 38 979.3
20260508224311 20 143 3.2 16.1 0.00 0.00 0.00 39 979.3
20260508224306 19 335 3.2 16.1 0.00 0.00 0.00 38 979.3
20260508223305 19 330 3.2 9.7 0.00 0.00 0.00 38 979.3
20260508222806 20 354 1.6 9.7 0.00 0.00 0.00 38 979.3
20260508222306 20 332 1.6 9.7 0.00 0.00 0.00 37 979.3
20260508221805 20 358 0.0 6.4 0.00 0.00 0.00 36 979.4
20260508221305 20 120 1.6 8.0 0.00 0.00 0.00 36 979.4
20260508220805 19 158 1.6 8.0 0.00 0.00 0.00 37 979.4
20260508220305 20 306 0.0 4.8 0.00 0.00 0.00 37 979.4
20260508215803 20 111 0.0 3.2 0.00 0.00 0.00 38 979.5
20260508215306 20 157 0.0 8.0 0.00 0.00 0.00 37 979.6
20260508214801 20 229 0.0 8.0 0.00 0.00 0.00 37 979.6
20260508214301 19 226 1.6 11.3 0.00 0.00 0.00 36 979.6
20260508213800 18 252 3.2 11.3 0.00 0.00 0.00 39 979.6
20260508213301 18 0 3.2 11.3 0.00 0.00 0.00 39 979.6
20260508212801 18 27 3.2 11.3 0.00 0.00 0.00 39 979.8
20260508212301 19 16 1.6 11.3 0.00 0.00 0.00 36 979.8